Regional Weather Roundup
Issued by NWS Goodland, KS

Home | Current Version | Previous Version | Text Only | Print | Product List | Glossary On
Versions: 1 2 3 4 5 6 7 8 9 10 11 12 13 14 15 16 17 18 19 20 21 22 23 24 25 26 27 28 29 30 31 32 33 34 35 36 37 38 39 40 41 42 43 44 45 46 47 48 49 50
166
ASUS43 KGLD 251908
RWRGLD

GOODLAND FORECAST AREA HOURLY WEATHER ROUNDUP
NATIONAL WEATHER SERVICE GOODLAND KS
100 PM MDT TUE JUL 25 2017

...OFFICIAL OBSERVATIONS...

CITY           SKY/WX    TMP DP  RH WIND       PRES   REMARKS
GOODLAND KS    SUNNY     93  66  40 S21G28    29.99F
HILL CITY KS   SUNNY     98  66  34 S15G29    29.97F HX 101
IMPERIAL NEB   SUNNY     99  60  27 S17G24    29.95F
MCCOOK NEB     SUNNY     98  68  37 S20G29    29.94F HX 103
AKRON CO       SUNNY     96  50  20 SW7G18    30.01F
BURLINGTON CO  SUNNY     94  60  32 S15       30.03F
LIMON CO       SUNNY     88  49  25 VRB3      30.10F
$$

...UNOFFICIAL OBSERVATIONS...

CITY           SKY/WX    TMP DP  RH WIND       PRES   REMARKS
LENORA KS        N/A     96  32  10 MISG        N/A
NORTON KS      SUNNY     97  55  24 S18G26    29.96
SHARON SPRINGS   N/A     97  66  36 S18G26      N/A  HX 100
TRENTON NEB      N/A     98  32  10 SW13        N/A
KIT CARSON CO    N/A     93  61  34 MISG        N/A
YUMA CO        FAIR      93  36  13 S14G21    29.98F
$$




USA.gov is the U.S. government's official web portal to all federal, state and local government web resources and services.